Andocutin, Mexico

9:14 AM CDT on April 29, 2017 (GMT -0500)
Andocutin

Weather History for 76665 - May, 2013

Change the Weather History Date:

Monday, May 27, 2013

  Actual Average Record
Temperature  
Mean Temperature 70 °F -  
Max Temperature 84 °F 80 °F - ()
Min Temperature 55 °F 58 °F - ()
Cooling Degree Days 4    
Growing Degree Days 20 (Base 50)    
Moisture  
Dew Point 56 °F    
Average Humidity 68    
Maximum Humidity 94    
Minimum Humidity 25    
Precipitation  
Precipitation 0.00 in 0.17 in - ()
Sea Level Pressure  
Sea Level Pressure 29.99 in    
Wind  
Wind Speed 3 mph ()    
Max Wind Speed 12 mph    
Max Gust Speed -    
Visibility 5.9 miles    
Events Rain    
T = Trace of Precipitation, MM = Missing Value Source: Averaged Metar Reports

Daily Weather History Graph

Daily Weather History Graph

Search for Another Location

Airport or City:

Trip Planner

Search our weather history database for the weather conditions in past years. The results will help you decide how hot, cold, wet, or windy it might be!

Date:

Astronomy

May. 27, 2013 Rise Set
Actual Time 7:04 AM CDT 8:17 PM CDT
Civil Twilight 6:40 AM CDT 8:41 PM CDT
Nautical Twilight 6:12 AM CDT 9:10 PM CDT
Astronomical Twilight 5:42 AM CDT 9:40 PM CDT
Moon 11:07 PM CDT (5/27) 9:39 AM CDT (5/27)
Length of Visible Light 14h 01m
Length of Day
13h 12m
Waning Gibbous, 91% of the Moon is Illuminated
May 27
Waning Gibbous
May 31
Last Quarter
Jun 8
New
Jun 16
First Quarter
Jun 23
Full

Hourly Weather History & Observations

Time (CDT) Temp. Heat Index Dew Point Humidity Pressure Visibility Wind Dir Wind Speed Gust Speed Precip Events Conditions
12:45 AM 59.0 °F - 57.2 °F 94% 29.83 in 6.0 mi Calm Calm - N/A   Scattered Clouds
12:50 AM 61 °F - 57 °F 84% 29.81 in 5 mi South 2.2 mph - -   Partly Cloudy
1:42 AM 59.0 °F - 57.2 °F 94% 30.25 in 6.0 mi Calm Calm - N/A   Scattered Clouds
2:41 AM 60.8 °F - 57.2 °F 88% 30.24 in 6.0 mi SW 8.1 mph - N/A   Mostly Cloudy
3:45 AM 60.8 °F - 57.2 °F 88% 29.77 in 6.0 mi SSW 10.4 mph - N/A   Mostly Cloudy
3:50 AM 61 °F - 56 °F 80% 29.83 in 5 mi SW 2.2 mph - -   Partly Cloudy
4:48 AM 60.8 °F - 57.2 °F 88% 30.19 in 6.0 mi SSW 5.8 mph - N/A   Scattered Clouds
5:41 AM 57.2 °F - 55.4 °F 94% 30.19 in 6.0 mi WSW 4.6 mph - N/A   Scattered Clouds
6:40 AM 57.2 °F - 55.4 °F 94% 29.77 in 6.0 mi Calm Calm - N/A   Partly Cloudy
6:50 AM 58 °F - 54 °F 83% 29.86 in 5 mi South 2.2 mph - -   Partly Cloudy
7:41 AM 57.2 °F - 55.4 °F 94% 30.21 in 6.0 mi Calm Calm - N/A   Scattered Clouds
8:40 AM 59.0 °F - 55.4 °F 88% 30.22 in 4.0 mi Calm Calm - N/A   Overcast
9:42 AM 62.6 °F - 57.2 °F 82% 29.85 in 4.0 mi Calm Calm - N/A   Overcast
9:50 AM 61 °F - 57 °F 83% 29.95 in 6 mi SSW 2.2 mph - -   Partly Cloudy
10:43 AM 64.4 °F - 59.0 °F 83% 30.24 in 4.0 mi Variable 2.3 mph - N/A   Overcast
11:40 AM 68.0 °F - 57.2 °F 68% 30.24 in 4.0 mi Variable 3.5 mph - N/A   Mostly Cloudy
12:42 PM 71.6 °F - 57.2 °F 60% 29.78 in 5.0 mi East 6.9 mph - N/A   Mostly Cloudy
12:50 PM 73 °F - 60 °F 54% 29.91 in 6 mi SE 2.2 mph - -   Partly Cloudy
1:42 PM 75.2 °F - 53.6 °F 47% 30.20 in 5.0 mi NE 6.9 mph - N/A   Mostly Cloudy
2:42 PM 77.0 °F - 51.8 °F 41% 30.17 in 7.0 mi ENE 4.6 mph - N/A   Mostly Cloudy
3:44 PM 78.8 °F - 51.8 °F 39% 29.76 in 7.0 mi Calm Calm - N/A   Mostly Cloudy
3:55 PM 82 °F - 52 °F 25% 29.80 in 6 mi SSW 2.2 mph - -   Partly Cloudy
4:51 PM 78.8 °F - 55.4 °F 44% 30.10 in 7.0 mi South 6.9 mph - N/A   Mostly Cloudy
5:52 PM 80.6 °F 80.5 °F 55.4 °F 42% 30.08 in 7.0 mi South 10.4 mph - N/A   Scattered Clouds
6:44 PM 77.0 °F - 55.4 °F 47% 29.64 in 7.0 mi South 11.5 mph - N/A   Scattered Clouds
6:55 PM 74 °F - 60 °F 53% 29.73 in 6 mi SSE 2.2 mph - -   Partly Cloudy
7:05 PM 75.2 °F - 55.4 °F 50% 30.07 in 7.0 mi SSW 11.5 mph - N/A Rain Light Rain
7:19 PM 75.2 °F - 55.4 °F 50% 30.07 in 7.0 mi South 6.9 mph - N/A   Scattered Clouds
7:43 PM 75.2 °F - 55.4 °F 50% 30.08 in 7.0 mi SSE 9.2 mph - N/A   Scattered Clouds
8:44 PM 71.6 °F - 55.4 °F 57% 30.08 in 7.0 mi Calm Calm - N/A   Mostly Cloudy
9:40 PM 69.8 °F - 55.4 °F 60% 29.65 in 7.0 mi Calm Calm - N/A   Mostly Cloudy
9:55 PM 69 °F - 60 °F 64% 29.66 in 5 mi SSW 2.2 mph - -   Partly Cloudy
10:45 PM 66.2 °F - 53.6 °F 64% 30.14 in 7.0 mi WNW 3.5 mph - N/A   Mostly Cloudy
11:45 PM 64.4 °F - 57.2 °F 77% 30.16 in 7.0 mi WSW 3.5 mph - N/A   Mostly Cloudy